This is the latest recevied weather packets stored in our database for station/object W7TRD. If no packets are shown the sender has not sent any weather packets the latest 1 day(s).
| Time | Temp. | Humidity | Pressure | Rain* | Wind** | Luminosity | Snow |
|---|---|---|---|---|---|---|---|
| 1777995526 | 12.78° C | 95% | 1017 hPa | 0 mm | 0 m/s | 76 W/m² | - |
| 1777995223 | 12.22° C | 96% | 1017 hPa | 0 mm | 0 m/s | 73 W/m² | - |
| 1777994920 | 12.22° C | 96% | 1017.3 hPa | 0 mm | 0 m/s | 58 W/m² | - |
| 1777994618 | 12.22° C | 96% | 1016.9 hPa | 0 mm | 0 m/s | 47 W/m² | - |
| 1777994312 | 12.22° C | 96% | 1017 hPa | 0 mm | 0 m/s | 34 W/m² | - |
| 1777994009 | 12.22° C | 97% | 1016.9 hPa | 0 mm | 0 m/s | 33 W/m² | - |
| 1777993706 | 12.22° C | 97% | 1017 hPa | 0 mm | 0 m/s | 35 W/m² | - |
| 1777993403 | 12.22° C | 97% | 1016.8 hPa | 0 mm | 0 m/s | 42 W/m² | - |
| 1777993103 | 12.22° C | 97% | 1016.9 hPa | 0 mm | 0 m/s | 46 W/m² | - |
| 1777992801 | 12.22° C | 98% | 1017.1 hPa | 0 mm | 0 m/s | 43 W/m² | - |
| 1777992498 | 12.22° C | 98% | 1016.9 hPa | 0 mm | 0 m/s | 36 W/m² | - |
| 1777992197 | 11.67° C | 98% | 1016.5 hPa | 0 mm | 0 m/s | 38 W/m² | - |
| 1777991893 | 11.67° C | 98% | 1016.8 hPa | 0 mm | 0 m/s | 36 W/m² | - |
| 1777991591 | 11.67° C | 98% | 1016.6 hPa | 0 mm | 0 m/s | 32 W/m² | - |
| 1777991288 | 11.67° C | 98% | 1016.7 hPa | 0 mm | 0 m/s | 28 W/m² | - |
| 1777990986 | 11.67° C | 98% | 1016.7 hPa | 0 mm | 0 m/s | 21 W/m² | - |
| 1777990683 | 11.67° C | 98% | 1016.5 hPa | 0 mm | 0 m/s | 21 W/m² | - |
| 1777990380 | 11.67° C | 98% | 1016.5 hPa | 0 mm | 0 m/s | 19 W/m² | - |
| 1777990075 | 11.67° C | 98% | 1016.4 hPa | 0 mm | 0 m/s | 15 W/m² | - |
| 1777989772 | 11.67° C | 98% | 1016.2 hPa | 0 mm | 0 m/s | 13 W/m² | - |
| 1777989469 | 11.67° C | 98% | 1016.4 hPa | 0 mm | 0 m/s | 11 W/m² | - |
| 1777989166 | 11.67° C | 98% | 1016.5 hPa | 0 mm | 0 m/s | 9 W/m² | - |
| 1777988862 | 11.67° C | 98% | 1016.2 hPa | 0 mm | 0 m/s | 8 W/m² | - |
| 1777988560 | 11.67° C | 98% | 1016.4 hPa | 0 mm | 0 m/s | 8 W/m² | - |
| 1777988256 | 11.67° C | 98% | 1016.3 hPa | 0 mm | 0 m/s | 7 W/m² | - |
* Rain latest hour (hover to see other rain measurements)
** Current wind speed in m/s (hover to see current wind gust speed)